Weather reports worldwide

Advertisment
Albacete/Los Llanos, Spain (8280): temperature & dewpoint: 10.01.2018 08:00:00 - 16.01.2018 08:00:00 (CET)Albacete/Los Llanos, Spain (8280): wind speed: 10.01.2018 08:00:00 - 16.01.2018 08:00:00 (CET)Albacete/Los Llanos, Spain (8280): wind direction: 10.01.2018 08:00:00 - 16.01.2018 08:00:00 (CET)Albacete/Los Llanos, Spain (8280): reduced air pressure: 10.01.2018 08:00:00 - 16.01.2018 08:00:00 (CET)Albacete/Los Llanos, Spain (8280): visibility: 10.01.2018 08:00:00 - 16.01.2018 08:00:00 (CET)
Date & Time tt [°C] td [°C] ff [km/h] ff [kn] dd ppp [hPa] vv [km]
16.01.2018 08:00:00 - - - - - - -
16.01.2018 07:00:00 -1,0 -1,6 5 3 N 1031,7 30
16.01.2018 06:00:00 - - - - - - -
16.01.2018 05:00:00 - - - - - - -
16.01.2018 04:00:00 -1,2 -1,3 5 3 NW 1031,9 30
16.01.2018 03:00:00 - - - - - - -
16.01.2018 02:00:00 - - - - - - -
16.01.2018 01:00:00 0,4 -0,6 5 3 SW 1032,3 20
16.01.2018 00:00:00 - - - - - - -
15.01.2018 23:00:00 - - - - - - -
15.01.2018 22:00:00 3,5 0,7 8 4 WSW 1030,9 30
15.01.2018 21:00:00 - - - - - - -
15.01.2018 20:00:00 - - - - - - -
15.01.2018 19:00:00 5,3 1,2 9 5 NW 1028,8 20
15.01.2018 18:00:00 - - - - - - -
15.01.2018 17:00:00 - - - - - - -
15.01.2018 16:00:00 9,2 0,4 8 4 WNW 1026,0 20
15.01.2018 15:00:00 - - - - - - -
15.01.2018 14:00:00 - - - - - - -
15.01.2018 13:00:00 7,0 1,1 9 5 NW 1027,5 20
15.01.2018 12:00:00 - - - - - - -
15.01.2018 11:00:00 - - - - - - -
15.01.2018 10:00:00 2,0 0,2 5 3 N 1028,1 12
15.01.2018 09:00:00 - - - - - - -
15.01.2018 08:00:00 - - - - - - -
15.01.2018 07:00:00 0,1 -0,7 5 3 W 1026,3 10
15.01.2018 06:00:00 - - - - - - -
15.01.2018 05:00:00 - - - - - - -
15.01.2018 04:00:00 1,7 0,8 5 3 W 1024,0 25
15.01.2018 03:00:00 - - - - - - -
15.01.2018 02:00:00 - - - - - - -
15.01.2018 01:00:00 2,6 1,3 5 3 NNW 1023,2 25
15.01.2018 00:00:00 - - - - - - -
14.01.2018 23:00:00 - - - - - - -
14.01.2018 22:00:00 3,9 2,7 5 3 W 1021,5 25
14.01.2018 21:00:00 - - - - - - -
14.01.2018 20:00:00 - - - - - - -
14.01.2018 19:00:00 5,0 2,4 4 2 W 1019,6 25
14.01.2018 18:00:00 - - - - - - -
14.01.2018 17:00:00 - - - - - - -
14.01.2018 16:00:00 7,2 3,1 15 8 NNW 1017,9 20
14.01.2018 15:00:00 - - - - - - -
14.01.2018 14:00:00 - - - - - - -
14.01.2018 13:00:00 6,9 2,2 15 8 WNW 1019,3 20
14.01.2018 12:00:00 - - - - - - -
14.01.2018 11:00:00 - - - - - - -
14.01.2018 10:00:00 4,2 2,7 9 5 WNW 1021,0 25
14.01.2018 09:00:00 - - - - - - -
14.01.2018 08:00:00 - - - - - - -
14.01.2018 07:00:00 3,7 2,8 13 7 W 1020,3 15
14.01.2018 06:00:00 - - - - - - -
14.01.2018 05:00:00 - - - - - - -
14.01.2018 04:00:00 4,0 2,0 2 1 N 1020,7 25
14.01.2018 03:00:00 - - - - - - -
14.01.2018 02:00:00 - - - - - - -
14.01.2018 01:00:00 5,1 1,9 28 15 WNW 1020,3 30
14.01.2018 00:00:00 - - - - - - -
13.01.2018 23:00:00 - - - - - - -
13.01.2018 22:00:00 5,8 2,3 15 8 W 1020,0 30
13.01.2018 21:00:00 - - - - - - -
13.01.2018 20:00:00 - - - - - - -
13.01.2018 19:00:00 7,5 2,6 15 8 WSW 1018,2 40
13.01.2018 18:00:00 - - - - - - -
13.01.2018 17:00:00 - - - - - - -
13.01.2018 16:00:00 10,2 -3,1 28 15 WSW 1017,3 40
13.01.2018 15:00:00 - - - - - - -
13.01.2018 14:00:00 - - - - - - -
13.01.2018 13:00:00 7,9 0,2 11 6 S 1019,5 35
13.01.2018 12:00:00 - - - - - - -
13.01.2018 11:00:00 - - - - - - -
13.01.2018 10:00:00 1,0 -0,9 11 6 SE 1022,9 35
13.01.2018 09:00:00 - - - - - - -
13.01.2018 08:00:00 - - - - - - -
13.01.2018 07:00:00 -2,2 -2,5 4 2 N 1023,9 12
13.01.2018 06:00:00 - - - - - - -
13.01.2018 05:00:00 - - - - - - -
13.01.2018 04:00:00 -0,8 -1,5 9 5 S 1025,0 10
13.01.2018 03:00:00 - - - - - - -
13.01.2018 02:00:00 - - - - - - -
13.01.2018 01:00:00 -0,4 -1,0 9 5 SE 1026,7 20
13.01.2018 00:00:00 - - - - - - -
12.01.2018 23:00:00 - - - - - - -
12.01.2018 22:00:00 1,6 -0,2 2 1 N 1026,8 20
12.01.2018 21:00:00 - - - - - - -
12.01.2018 20:00:00 - - - - - - -
12.01.2018 19:00:00 5,2 0,4 8 4 NW 1025,7 30
12.01.2018 18:00:00 - - - - - - -
12.01.2018 17:00:00 - - - - - - -
12.01.2018 16:00:00 8,9 0,6 18 10 NW 1023,9 30
12.01.2018 15:00:00 - - - - - - -
12.01.2018 14:00:00 - - - - - - -
12.01.2018 13:00:00 7,6 2,1 24 13 WNW 1026,3 30
12.01.2018 12:00:00 - - - - - - -
12.01.2018 11:00:00 - - - - - - -
12.01.2018 10:00:00 2,2 -1,1 5 3 W 1028,4 30
12.01.2018 09:00:00 - - - - - - -
12.01.2018 08:00:00 - - - - - - -
12.01.2018 07:00:00 0,9 -1,7 11 6 WNW 1027,5 30
12.01.2018 06:00:00 - - - - - - -
12.01.2018 05:00:00 - - - - - - -
12.01.2018 04:00:00 0,8 -1,0 9 5 SE 1028,1 30
12.01.2018 03:00:00 - - - - - - -
12.01.2018 02:00:00 - - - - - - -
12.01.2018 01:00:00 2,9 -0,7 18 10 W 1026,6 30
12.01.2018 00:00:00 - - - - - - -
11.01.2018 23:00:00 - - - - - - -
11.01.2018 22:00:00 2,8 -0,6 11 6 W 1027,3 30
11.01.2018 21:00:00 - - - - - - -
11.01.2018 20:00:00 - - - - - - -
11.01.2018 19:00:00 5,1 -0,3 16 9 WNW 1024,6 25
11.01.2018 18:00:00 - - - - - - -
11.01.2018 17:00:00 - - - - - - -
11.01.2018 16:00:00 8,0 1,0 41 22 NW 1022,0 25
11.01.2018 15:00:00 - - - - - - -
11.01.2018 14:00:00 - - - - - - -
11.01.2018 13:00:00 7,5 3,0 42 23 WNW 1022,3 25
11.01.2018 12:00:00 - - - - - - -
11.01.2018 11:00:00 - - - - - - -
11.01.2018 10:00:00 4,5 2,2 28 15 W 1023,9 6
11.01.2018 09:00:00 - - - - - - -
11.01.2018 08:00:00 - - - - - - -
11.01.2018 07:00:00 4,0 1,2 21 11 W 1023,5 25
11.01.2018 06:00:00 - - - - - - -
11.01.2018 05:00:00 - - - - - - -
11.01.2018 04:00:00 4,7 2,7 18 10 W 1023,9 25
11.01.2018 03:00:00 - - - - - - -
11.01.2018 02:00:00 - - - - - - -
11.01.2018 01:00:00 6,0 4,0 15 8 WNW 1023,2 25
11.01.2018 00:00:00 - - - - - - -
10.01.2018 23:00:00 - - - - - - -
10.01.2018 22:00:00 7,6 7,0 42 23 WNW 1020,0 4,0
10.01.2018 21:00:00 - - - - - - -
10.01.2018 20:00:00 - - - - - - -
10.01.2018 19:00:00 7,9 4,5 16 9 W 1019,4 30
10.01.2018 18:00:00 - - - - - - -
10.01.2018 17:00:00 - - - - - - -
10.01.2018 16:00:00 10,3 -25,7 35 19 WNW 1019,5 20
10.01.2018 15:00:00 - - - - - - -
10.01.2018 14:00:00 - - - - - - -
10.01.2018 13:00:00 9,1 5,3 29 16 WNW 1019,9 20
10.01.2018 12:00:00 - - - - - - -
10.01.2018 11:00:00 - - - - - - -
10.01.2018 10:00:00 5,4 5,3 5 3 N 1020,7 10
10.01.2018 09:00:00 - - - - - - -
10.01.2018 08:00:00 - - - - - - -

tt = temperature
td = dewpoint
ff = wind speed
dd = wind direction
ppp = reduced air pressure
vv = visibility

Next stations